Weather History for Gwinn, MI

Change the Weather History Date:

Wednesday, July 17, 2013

  Actual Average (KESC) Record (KESC)
Temperature  
Mean Temperature 79 °F -  
Max Temperature 89 °F 76 °F 91 °F (1991)
Min Temperature 69 °F 60 °F 42 °F (2014)
Cooling Degree Days 14    
Growing Degree Days 29 (Base 50)    
Moisture  
Dew Point 69 °F    
Average Humidity 77    
Maximum Humidity 92    
Minimum Humidity 43    
Precipitation  
Precipitation 0.00 in - - ()
Sea Level Pressure  
Sea Level Pressure 30.19 in    
Wind  
Wind Speed 6 mph (West)    
Max Wind Speed 15 mph    
Max Gust Speed 23 mph    
Visibility 10 miles    
Events Rain , Thunderstorm    
Averages and records for this station are not official NWS values.
T = Trace of Precipitation, MM = Missing Value Source: NWS Daily Summary

Daily Weather History Graph

Daily Weather History Graph

Search for Another Location

Airport:

Trip Planner

Search our weather history database for the weather conditions in past years. The results will help you decide how hot, cold, wet, or windy it might be!

Date:

Astronomy

Jul. 17, 2013 Rise Set
Actual Time 6:14 AM EDT 9:36 PM EDT
Civil Twilight 5:37 AM EDT 10:13 PM EDT
Nautical Twilight 4:48 AM EDT 11:01 PM EDT
Astronomical Twilight 3:46 AM EDT 12:03 AM EDT
Moon 4:20 PM EDT (7/17) 1:28 AM EDT (7/17)
Length of Visible Light 16h 35m
Length of Day
15h 21m
Waxing Gibbous, 67% of the Moon is Illuminated
Jul 17
Waxing Gibbous
Jul 22
Full
Jul 29
Last Quarter
Aug 6
New
Aug 14
First Quarter

Hourly Weather History & Observations

Time (EDT) Temp. Heat Index Dew Point Humidity Pressure Visibility Wind Dir Wind Speed Gust Speed Precip Events Conditions
12:16 AM 78.4 °F - 72.9 °F 83% 30.21 in 10.0 mi WSW 4.6 mph - N/A   Scattered Clouds
12:36 AM 78.1 °F - 72.1 °F 82% 30.21 in 10.0 mi WSW 5.8 mph - N/A   Clear
12:56 AM 77.9 °F - 71.6 °F 81% 30.20 in 10.0 mi WSW 5.8 mph - N/A   Clear
1:16 AM 77.4 °F - 70.9 °F 80% 30.20 in 10.0 mi WSW 6.9 mph - N/A   Clear
1:35 AM 77.0 °F - 70.7 °F 81% 30.20 in 10.0 mi WSW 6.9 mph - N/A   Clear
1:56 AM 76.1 °F - 70.3 °F 82% 30.20 in 10.0 mi WSW 6.9 mph - N/A   Clear
2:16 AM 75.6 °F - 70.2 °F 83% 30.19 in 10.0 mi WSW 6.9 mph - N/A   Clear
2:36 AM 75.0 °F - 70.0 °F 84% 30.19 in 10.0 mi WSW 4.6 mph - N/A   Clear
2:56 AM 74.3 °F - 69.8 °F 86% 30.19 in 10.0 mi WSW 4.6 mph - N/A   Clear
3:15 AM 74.3 °F - 69.8 °F 86% 30.19 in 10.0 mi West 5.8 mph - N/A   Clear
3:36 AM 73.9 °F - 69.4 °F 86% 30.19 in 10.0 mi West 4.6 mph - N/A   Clear
3:56 AM 73.6 °F - 69.3 °F 86% 30.19 in 10.0 mi West 4.6 mph - N/A   Clear
4:16 AM 73.0 °F - 68.9 °F 87% 30.19 in 10.0 mi WSW 4.6 mph - N/A   Clear
4:36 AM 72.9 °F - 68.9 °F 87% 30.19 in 10.0 mi WSW 5.8 mph - N/A   Clear
4:56 AM 73.0 °F - 68.4 °F 85% 30.20 in 10.0 mi West 4.6 mph - N/A   Clear
5:16 AM 72.9 °F - 68.2 °F 85% 30.20 in 10.0 mi WSW 3.5 mph - N/A   Clear
5:35 AM 72.9 °F - 68.2 °F 85% 30.20 in 10.0 mi West 3.5 mph - N/A   Clear
5:56 AM 72.9 °F - 68.0 °F 85% 30.21 in 10.0 mi Calm Calm - N/A   Clear
6:50 AM 71.6 °F - 68.0 °F 88% 30.21 in - Calm Calm - N/A   Clear
7:50 AM 73.4 °F - 68.0 °F 83% 30.22 in 10.0 mi Calm Calm - N/A   Clear
8:50 AM 78.8 °F - 69.8 °F 74% 30.23 in 10.0 mi Calm Calm - N/A   Clear
9:50 AM 82.4 °F 85.4 °F 68.0 °F 62% 30.23 in 10.0 mi West 8.1 mph - N/A   Clear
10:50 AM 84.2 °F 87.3 °F 68.0 °F 58% 30.22 in 10.0 mi NW 10.4 mph - N/A   Clear
11:50 AM 86.0 °F 88.2 °F 66.2 °F 51% 30.21 in 10.0 mi WNW 9.2 mph - N/A   Scattered Clouds
12:50 PM 89.6 °F 92.2 °F 66.2 °F 46% 30.21 in 10.0 mi West 12.7 mph - N/A   Scattered Clouds
1:50 PM 87.8 °F 89.4 °F 64.4 °F 46% 30.20 in 10.0 mi West 13.8 mph 23.0 mph N/A   Mostly Cloudy
2:50 PM 89.6 °F 91.1 °F 64.4 °F 43% 30.18 in 10.0 mi West 15.0 mph 20.7 mph N/A   Mostly Cloudy
3:55 PM 82.4 °F 86.3 °F 69.8 °F 66% 30.17 in 10.0 mi NW 8.1 mph - N/A Rain Light Rain
4:50 PM 82.4 °F 85.4 °F 68.0 °F 62% 30.15 in 10.0 mi NW 8.1 mph 19.6 mph N/A Rain Light Rain
5:50 PM 87.8 °F 92.6 °F 69.8 °F 55% 30.14 in 10.0 mi NW 8.1 mph - N/A   Mostly Cloudy
6:50 PM 80.6 °F 83.9 °F 69.8 °F 70% 30.15 in 10.0 mi NNW 10.4 mph - N/A   Mostly Cloudy
7:50 PM 80.6 °F 83.9 °F 69.8 °F 70% 30.14 in 10.0 mi ENE 4.6 mph - N/A   Scattered Clouds
8:50 PM 75.2 °F - 69.8 °F 83% 30.17 in 10.0 mi NE 6.9 mph - N/A   Mostly Cloudy
9:45 PM 71.6 °F - 68.0 °F 88% 30.15 in 10.0 mi NE 3.5 mph - N/A   Mostly Cloudy
10:16 PM 70.2 °F - 66.7 °F 89% 30.15 in 10.0 mi NNW 4.6 mph - N/A   Mostly Cloudy
10:36 PM 69.6 °F - 67.1 °F 92% 30.16 in 10.0 mi Calm Calm - N/A   Scattered Clouds
10:56 PM 69.1 °F - 66.6 °F 92% 30.15 in 10.0 mi Calm Calm - N/A Thunderstorm Scattered Clouds
11:16 PM 70.0 °F - 66.7 °F 89% 30.15 in 10.0 mi SW 4.6 mph - N/A Thunderstorm Scattered Clouds
11:36 PM 71.6 °F - 67.3 °F 86% 30.15 in 10.0 mi SSW 6.9 mph - N/A Thunderstorm Scattered Clouds
11:56 PM 71.6 °F - 68.2 °F 89% 30.15 in 10.0 mi Calm Calm - N/A Rain Light Rain